| time (UTC) | temp F | wind direction | speed knots | gust knots | rain 1hr in | rain 24hr in | rain mn in | humidity % | barometer mb |
| 20260510071603 | 50 | 186 | 1.7 | 1.7 | 0.00 | 0.00 | 0.00 | 99 | 1011.5 |
| 20260510071101 | 50 | 289 | 0.0 | 0.0 | 0.00 | 0.00 | 0.00 | 99 | 1011.4 |
| 20260510070557 | 50 | 5 | 1.7 | 2.6 | 0.00 | 0.00 | 0.00 | 99 | 1011.7 |
| 20260510070055 | 50 | 308 | 0.0 | 0.0 | 0.00 | 0.00 | 0.00 | 99 | 1011.7 |
| 20260510065551 | 50 | 312 | 0.0 | 0.0 | 0.00 | 0.00 | 0.00 | 99 | 1011.7 |
| 20260510065047 | 50 | 309 | 1.7 | 1.7 | 0.00 | 0.00 | 0.00 | 99 | 1011.4 |
| 20260510064543 | 50 | 9 | 4.3 | 5.2 | 0.00 | 0.00 | 0.00 | 99 | 1011.5 |
| 20260510064040 | 50 | 29 | 2.6 | 4.3 | 0.00 | 0.00 | 0.00 | 99 | 1011.8 |
| 20260510063537 | 50 | 305 | 2.6 | 4.3 | 0.00 | 0.00 | 0.00 | 99 | 1011.8 |
| 20260510063034 | 51 | 195 | 0.0 | 0.0 | 0.00 | 0.00 | 0.00 | 99 | 1011.0 |
| 20260510062530 | 51 | 206 | 0.0 | 0.0 | 0.00 | 0.00 | 0.00 | 99 | 1010.9 |
| 20260510062025 | 51 | 206 | 0.0 | 0.0 | 0.00 | 0.00 | 0.00 | 99 | 1011.0 |
| 20260510061522 | 51 | 223 | 0.0 | 0.0 | 0.00 | 0.00 | 0.00 | 99 | 1011.2 |
| 20260510061019 | 51 | 242 | 0.0 | 0.0 | 0.00 | 0.00 | 0.00 | 99 | 1011.2 |
| 20260510060515 | 51 | 85 | 0.0 | 0.0 | 0.00 | 0.00 | 0.00 | 99 | 1011.4 |
| 20260510060012 | 51 | 167 | 0.0 | 0.0 | 0.00 | 0.00 | 0.00 | 99 | 1011.2 |
| 20260510055507 | 51 | 49 | 0.9 | 1.7 | 0.00 | 0.00 | 0.00 | 99 | 1011.5 |
| 20260510055006 | 51 | 58 | 3.5 | 4.3 | 0.00 | 0.00 | 0.00 | 99 | 1011.4 |
| 20260510054501 | 50 | 63 | 0.9 | 1.7 | 0.00 | 0.00 | 0.00 | 99 | 1011.8 |
| 20260510053956 | 50 | 342 | 2.6 | 4.3 | 0.00 | 0.00 | 0.00 | 99 | 1011.6 |
| 20260510053451 | 50 | 66 | 2.6 | 2.6 | 0.00 | 0.00 | 0.00 | 99 | 1011.4 |
| 20260510052948 | 51 | 62 | 2.6 | 2.6 | 0.00 | 0.00 | 0.00 | 99 | 1011.2 |
| 20260510052444 | 51 | 326 | 0.0 | 0.0 | 0.00 | 0.00 | 0.00 | 99 | 1011.2 |
| 20260510051940 | 52 | 8 | 0.0 | 0.0 | 0.00 | 0.00 | 0.00 | 99 | 1011.0 |
| 20260510051437 | 52 | 169 | 0.9 | 2.6 | 0.00 | 0.00 | 0.00 | 99 | 1010.9 |
| 20260510050933 | 52 | 193 | 0.0 | 0.0 | 0.00 | 0.00 | 0.00 | 99 | 1010.9 |
| 20260510050430 | 52 | 197 | 0.9 | 1.7 | 0.00 | 0.00 | 0.00 | 99 | 1010.8 |
| 20260510045927 | 52 | 167 | 1.7 | 2.6 | 0.00 | 0.00 | 0.00 | 99 | 1010.9 |
| 20260510045425 | 52 | 173 | 1.7 | 2.6 | 0.00 | 0.00 | 0.00 | 99 | 1010.9 |
| 20260510044921 | 52 | 173 | 1.7 | 2.6 | 0.00 | 0.00 | 0.00 | 99 | 1010.7 |
| 20260510044418 | 53 | 128 | 1.7 | 2.6 | 0.00 | 0.00 | 0.00 | 99 | 1010.9 |
| 20260510043915 | 53 | 158 | 0.9 | 1.7 | 0.00 | 0.00 | 0.00 | 99 | 1010.8 |
| 20260510043411 | 53 | 166 | 2.6 | 2.6 | 0.00 | 0.00 | 0.00 | 98 | 1011.0 |
| 20260510042909 | 53 | 181 | 1.7 | 2.6 | 0.00 | 0.00 | 0.00 | 98 | 1011.2 |
| 20260510042405 | 53 | 161 | 1.7 | 4.3 | 0.00 | 0.00 | 0.00 | 98 | 1011.2 |
| 20260510041901 | 53 | 176 | 2.6 | 4.3 | 0.00 | 0.00 | 0.00 | 98 | 1011.0 |
| 20260510041358 | 53 | 174 | 1.7 | 2.6 | 0.00 | 0.00 | 0.00 | 98 | 1010.8 |
| 20260510040855 | 53 | 188 | 1.7 | 2.6 | 0.00 | 0.00 | 0.00 | 98 | 1011.0 |
| 20260510040352 | 53 | 226 | 1.7 | 2.6 | 0.00 | 0.00 | 0.00 | 98 | 1011.1 |
| 20260510035847 | 53 | 192 | 0.9 | 2.6 | 0.00 | 0.15 | 0.15 | 98 | 1011.0 |
| 20260510035343 | 53 | 226 | 0.9 | 1.7 | 0.00 | 0.15 | 0.15 | 98 | 1011.0 |
| 20260510034839 | 53 | 154 | 1.7 | 2.6 | 0.00 | 0.15 | 0.15 | 98 | 1011.0 |
| 20260510034337 | 53 | 155 | 1.7 | 2.6 | 0.00 | 0.15 | 0.15 | 97 | 1010.9 |
| 20260510033834 | 53 | 171 | 3.5 | 4.3 | 0.00 | 0.15 | 0.15 | 97 | 1011.1 |
| 20260510033330 | 53 | 181 | 0.9 | 2.6 | 0.00 | 0.15 | 0.15 | 97 | 1010.9 |
| 20260510032827 | 53 | 158 | 2.6 | 4.3 | 0.00 | 0.15 | 0.15 | 97 | 1011.0 |
| 20260510032324 | 53 | 223 | 1.7 | 2.6 | 0.00 | 0.15 | 0.15 | 96 | 1011.2 |
| 20260510031819 | 53 | 197 | 0.0 | 1.7 | 0.00 | 0.15 | 0.15 | 96 | 1011.0 |
| 20260510031315 | 53 | 174 | 0.9 | 1.7 | 0.00 | 0.15 | 0.15 | 96 | 1011.0 |
| 20260510030809 | 54 | 208 | 1.7 | 2.6 | 0.00 | 0.15 | 0.15 | 95 | 1011.0 |
| 20260510030306 | 53 | 200 | 0.0 | 1.7 | 0.00 | 0.15 | 0.15 | 95 | 1010.9 |
| 20260510025803 | 54 | 156 | 1.7 | 2.6 | 0.00 | 0.15 | 0.15 | 95 | 1011.0 |
| 20260510025301 | 54 | 178 | 0.9 | 1.7 | 0.00 | 0.15 | 0.15 | 95 | 1011.1 |
| 20260510024757 | 54 | 222 | 0.0 | 0.0 | 0.00 | 0.15 | 0.15 | 94 | 1011.0 |
| 20260510024254 | 54 | 203 | 0.0 | 0.0 | 0.00 | 0.15 | 0.15 | 93 | 1010.9 |
| 20260510023750 | 54 | 185 | 0.0 | 0.0 | 0.00 | 0.15 | 0.15 | 93 | 1011.0 |
| 20260510023247 | 55 | 188 | 1.7 | 1.7 | 0.00 | 0.15 | 0.15 | 93 | 1011.0 |
| 20260510022743 | 55 | 184 | 1.7 | 2.6 | 0.00 | 0.15 | 0.15 | 92 | 1010.9 |
| 20260510022238 | 55 | 160 | 0.9 | 1.7 | 0.00 | 0.15 | 0.15 | 92 | 1011.0 |
| 20260510021737 | 55 | 182 | 1.7 | 2.6 | 0.00 | 0.15 | 0.15 | 92 | 1010.9 |
| 20260510021236 | 55 | 196 | 0.9 | 1.7 | 0.00 | 0.15 | 0.15 | 92 | 1010.8 |
| 20260510020731 | 55 | 185 | 1.7 | 2.6 | 0.00 | 0.15 | 0.15 | 92 | 1010.8 |
| 20260510020226 | 55 | 218 | 0.9 | 1.7 | 0.00 | 0.15 | 0.15 | 92 | 1010.6 |
| 20260510015722 | 55 | 161 | 0.9 | 2.6 | 0.00 | 0.15 | 0.15 | 92 | 1010.7 |
| 20260510015218 | 55 | 234 | 1.7 | 2.6 | 0.00 | 0.15 | 0.15 | 92 | 1010.6 |
| 20260510014714 | 55 | 178 | 0.0 | 0.0 | 0.00 | 0.15 | 0.15 | 92 | 1010.6 |
| 20260510014211 | 55 | 176 | 1.7 | 1.7 | 0.00 | 0.15 | 0.15 | 92 | 1010.5 |
| 20260510013711 | 55 | 193 | 0.0 | 0.0 | 0.00 | 0.15 | 0.15 | 92 | 1010.3 |
| 20260510013208 | 55 | 197 | 0.0 | 0.0 | 0.00 | 0.15 | 0.15 | 92 | 1010.3 |
| 20260510012702 | 55 | 234 | 0.0 | 0.0 | 0.00 | 0.15 | 0.15 | 91 | 1010.3 |
| 20260510012157 | 56 | 191 | 0.0 | 0.0 | 0.00 | 0.15 | 0.15 | 89 | 1010.1 |
| 20260510011652 | 57 | 174 | 0.0 | 0.0 | 0.00 | 0.15 | 0.15 | 89 | 1010.1 |
| 20260510011148 | 57 | 163 | 1.7 | 2.6 | 0.00 | 0.15 | 0.15 | 88 | 1010.2 |
| 20260510010644 | 57 | 196 | 1.7 | 1.7 | 0.00 | 0.15 | 0.15 | 88 | 1010.2 |
| 20260510010142 | 57 | 154 | 0.0 | 0.0 | 0.00 | 0.15 | 0.15 | 89 | 1010.2 |
| 20260510005637 | 57 | 171 | 0.0 | 0.0 | 0.00 | 0.15 | 0.15 | 89 | 1010.1 |
| 20260510005135 | 56 | 168 | 0.9 | 1.7 | 0.00 | 0.15 | 0.15 | 90 | 1010.2 |
| 20260510004633 | 56 | 166 | 1.7 | 2.6 | 0.00 | 0.15 | 0.15 | 90 | 1010.2 |
| 20260510004131 | 56 | 201 | 0.0 | 0.0 | 0.00 | 0.15 | 0.15 | 91 | 1009.9 |
| 20260510003628 | 57 | 150 | 0.0 | 0.0 | 0.00 | 0.15 | 0.15 | 90 | 1010.1 |
| 20260510003123 | 57 | 232 | 0.0 | 0.0 | 0.00 | 0.15 | 0.15 | 89 | 1009.8 |
| 20260510002618 | 57 | 180 | 0.0 | 0.0 | 0.00 | 0.15 | 0.15 | 89 | 1009.8 |
| 20260510002115 | 58 | 183 | 0.0 | 0.0 | 0.00 | 0.15 | 0.15 | 88 | 1010.0 |
| 20260510001612 | 58 | 183 | 0.0 | 0.0 | 0.00 | 0.15 | 0.15 | 87 | 1010.0 |
| 20260510001111 | 59 | 173 | 0.0 | 0.0 | 0.00 | 0.15 | 0.15 | 86 | 1009.5 |
| 20260510000611 | 59 | 134 | 0.0 | 0.0 | 0.00 | 0.15 | 0.15 | 85 | 1009.7 |
| 20260510000108 | 59 | 228 | 0.0 | 0.0 | 0.00 | 0.15 | 0.15 | 85 | 1009.5 |
| 20260509235604 | 59 | 204 | 0.0 | 1.7 | 0.00 | 0.15 | 0.15 | 84 | 1009.6 |
| 20260509235101 | 60 | 137 | 1.7 | 2.6 | 0.00 | 0.15 | 0.15 | 84 | 1009.6 |
| 20260509234557 | 60 | 195 | 1.7 | 1.7 | 0.00 | 0.15 | 0.15 | 83 | 1009.8 |
| 20260509234055 | 60 | 171 | 0.9 | 1.7 | 0.00 | 0.15 | 0.15 | 82 | 1009.7 |
| 20260509233553 | 61 | 162 | 1.7 | 2.6 | 0.00 | 0.15 | 0.15 | 81 | 1009.4 |
| 20260509233050 | 61 | 172 | 0.9 | 1.7 | 0.00 | 0.15 | 0.15 | 81 | 1009.3 |
| 20260509232546 | 61 | 235 | 0.9 | 1.7 | 0.00 | 0.15 | 0.15 | 80 | 1009.4 |
| 20260509232043 | 61 | 157 | 1.7 | 2.6 | 0.00 | 0.15 | 0.15 | 80 | 1009.4 |
| 20260509231539 | 61 | 242 | 2.6 | 5.2 | 0.00 | 0.15 | 0.15 | 78 | 1009.4 |
| 20260509231037 | 61 | 198 | 1.7 | 2.6 | 0.00 | 0.15 | 0.15 | 79 | 1009.4 |
| 20260509230534 | 61 | 191 | 0.9 | 1.7 | 0.00 | 0.15 | 0.15 | 78 | 1009.5 |
| 20260509230031 | 62 | 156 | 3.5 | 5.2 | 0.00 | 0.15 | 0.15 | 78 | 1009.5 |
| 20260509225526 | 62 | 206 | 2.6 | 4.3 | 0.00 | 0.15 | 0.15 | 79 | 1009.5 |
| 20260509225022 | 62 | 185 | 1.7 | 2.6 | 0.00 | 0.15 | 0.15 | 79 | 1009.7 |
| 20260509224518 | 62 | 135 | 2.6 | 4.3 | 0.00 | 0.15 | 0.15 | 78 | 1009.7 |
| 20260509224015 | 62 | 198 | 2.6 | 4.3 | 0.00 | 0.15 | 0.15 | 78 | 1009.7 |
| 20260509223512 | 62 | 216 | 2.6 | 2.6 | 0.00 | 0.15 | 0.15 | 79 | 1009.6 |
| 20260509223010 | 62 | 174 | 2.6 | 2.6 | 0.00 | 0.15 | 0.15 | 78 | 1009.7 |
| 20260509222505 | 62 | 219 | 2.6 | 2.6 | 0.00 | 0.15 | 0.15 | 77 | 1009.4 |
| 20260509222001 | 62 | 208 | 1.7 | 2.6 | 0.00 | 0.15 | 0.15 | 78 | 1009.4 |
| 20260509221457 | 63 | 190 | 4.3 | 7.0 | 0.00 | 0.15 | 0.15 | 77 | 1009.4 |
| 20260509220953 | 62 | 166 | 1.7 | 2.6 | 0.00 | 0.15 | 0.15 | 78 | 1009.5 |
| 20260509220449 | 62 | 173 | 2.6 | 4.3 | 0.00 | 0.15 | 0.15 | 78 | 1009.6 |
| 20260509215945 | 62 | 253 | 0.0 | 1.7 | 0.00 | 0.15 | 0.15 | 78 | 1009.7 |
| 20260509215441 | 63 | 182 | 3.5 | 4.3 | 0.00 | 0.15 | 0.15 | 76 | 1009.7 |
| 20260509214939 | 63 | 148 | 0.0 | 0.0 | 0.00 | 0.15 | 0.15 | 76 | 1009.6 |
| 20260509214436 | 64 | 180 | 1.7 | 2.6 | 0.00 | 0.15 | 0.15 | 78 | 1009.7 |
| 20260509213932 | 63 | 223 | 0.0 | 1.7 | 0.00 | 0.15 | 0.15 | 77 | 1010.0 |
| 20260509213428 | 62 | 210 | 0.0 | 0.0 | 0.00 | 0.15 | 0.15 | 78 | 1010.0 |
| 20260509212926 | 63 | 155 | 0.9 | 1.7 | 0.00 | 0.15 | 0.15 | 77 | 1010.1 |
| 20260509212423 | 63 | 281 | 0.0 | 0.0 | 0.00 | 0.15 | 0.15 | 79 | 1010.0 |
| 20260509211919 | 62 | 190 | 0.0 | 0.0 | 0.00 | 0.15 | 0.15 | 79 | 1010.1 |
| 20260509211415 | 62 | 233 | 0.0 | 0.0 | 0.00 | 0.15 | 0.15 | 81 | 1010.2 |
| 20260509210911 | 61 | 245 | 0.0 | 0.0 | 0.00 | 0.15 | 0.15 | 81 | 1010.5 |
| 20260509210409 | 61 | 298 | 0.0 | 0.0 | 0.00 | 0.15 | 0.15 | 80 | 1010.4 |
| 20260509205904 | 61 | 273 | 0.0 | 0.0 | 0.00 | 0.15 | 0.15 | 79 | 1010.4 |
| 20260509205404 | 61 | 239 | 0.0 | 0.0 | 0.00 | 0.15 | 0.15 | 80 | 1010.4 |
| 20260509204900 | 61 | 26 | 0.0 | 1.7 | 0.00 | 0.15 | 0.15 | 82 | 1010.1 |
| 20260509204357 | 61 | 244 | 0.0 | 0.0 | 0.00 | 0.15 | 0.15 | 79 | 1010.0 |
| 20260509203853 | 61 | 157 | 0.0 | 0.0 | 0.00 | 0.15 | 0.15 | 80 | 1009.9 |
| 20260509203349 | 61 | 33 | 0.0 | 0.0 | 0.00 | 0.15 | 0.15 | 80 | 1009.8 |
| 20260509202847 | 61 | 138 | 1.7 | 1.7 | 0.00 | 0.15 | 0.15 | 80 | 1009.8 |
| 20260509202342 | 61 | 274 | 0.0 | 0.0 | 0.00 | 0.15 | 0.15 | 80 | 1010.1 |
| 20260509201837 | 61 | 258 | 0.0 | 0.0 | 0.00 | 0.15 | 0.15 | 81 | 1009.9 |
| 20260509201334 | 61 | 242 | 0.0 | 0.0 | 0.00 | 0.15 | 0.15 | 81 | 1009.9 |
| 20260509200830 | 61 | 110 | 0.0 | 0.0 | 0.00 | 0.15 | 0.15 | 80 | 1010.3 |
| 20260509200326 | 61 | 235 | 0.0 | 0.0 | 0.00 | 0.15 | 0.15 | 81 | 1010.1 |
| 20260509195823 | 61 | 209 | 2.6 | 2.6 | 0.00 | 0.15 | 0.15 | 80 | 1010.5 |
| 20260509195322 | 61 | 163 | 2.6 | 4.3 | 0.00 | 0.15 | 0.15 | 80 | 1010.5 |
| 20260509194822 | 61 | 260 | 0.0 | 0.0 | 0.00 | 0.15 | 0.15 | 79 | 1010.2 |
| 20260509194318 | 62 | 194 | 0.9 | 1.7 | 0.00 | 0.15 | 0.15 | 78 | 1010.5 |
| 20260509193815 | 62 | 154 | 2.6 | 4.3 | 0.00 | 0.15 | 0.15 | 78 | 1010.5 |
| 20260509193315 | 61 | 154 | 2.6 | 2.6 | 0.00 | 0.15 | 0.15 | 80 | 1010.5 |
| 20260509192811 | 62 | 191 | 4.3 | 5.2 | 0.00 | 0.15 | 0.15 | 79 | 1010.4 |
| 20260509192307 | 61 | 243 | 0.9 | 1.7 | 0.00 | 0.15 | 0.15 | 80 | 1010.6 |
| 20260509191803 | 62 | 284 | 0.9 | 1.7 | 0.00 | 0.15 | 0.15 | 80 | 1010.8 |
| 20260509191259 | 61 | 194 | 0.9 | 2.6 | 0.00 | 0.15 | 0.15 | 79 | 1010.6 |
| 20260509190755 | 62 | 237 | 1.7 | 2.6 | 0.00 | 0.15 | 0.15 | 78 | 1010.8 |
| 20260509190252 | 61 | 130 | 2.6 | 4.3 | 0.00 | 0.15 | 0.15 | 82 | 1010.8 |
| 20260509185749 | 61 | 167 | 0.0 | 0.0 | 0.00 | 0.15 | 0.15 | 82 | 1010.8 |
| 20260509185245 | 60 | 179 | 4.3 | 7.0 | 0.00 | 0.15 | 0.15 | 81 | 1011.0 |
| 20260509184743 | 60 | 138 | 2.6 | 2.6 | 0.00 | 0.15 | 0.15 | 83 | 1010.8 |
| 20260509184241 | 60 | 272 | 5.2 | 7.0 | 0.00 | 0.15 | 0.15 | 86 | 1011.1 |
| 20260509183737 | 59 | 116 | 1.7 | 2.6 | 0.00 | 0.15 | 0.15 | 87 | 1011.1 |
| 20260509183232 | 59 | 193 | 2.6 | 5.2 | 0.00 | 0.15 | 0.15 | 89 | 1011.2 |
| 20260509182728 | 58 | 207 | 4.3 | 5.2 | 0.00 | 0.15 | 0.15 | 90 | 1011.3 |
| 20260509182226 | 57 | 136 | 5.2 | 7.8 | 0.00 | 0.15 | 0.15 | 90 | 1011.3 |
| 20260509181723 | 57 | 185 | 2.6 | 4.3 | 0.00 | 0.15 | 0.15 | 92 | 1011.2 |
| 20260509181220 | 57 | 204 | 4.3 | 5.2 | 0.00 | 0.15 | 0.15 | 93 | 1011.4 |
| 20260509180717 | 56 | 188 | 2.6 | 4.3 | 0.00 | 0.15 | 0.15 | 93 | 1011.5 |
| 20260509180213 | 56 | 218 | 3.5 | 4.3 | 0.00 | 0.15 | 0.15 | 92 | 1011.7 |
| 20260509175710 | 55 | 168 | 2.6 | 2.6 | 0.00 | 0.15 | 0.15 | 93 | 1011.6 |
| 20260509175206 | 55 | 210 | 2.6 | 4.3 | 0.00 | 0.15 | 0.15 | 93 | 1011.7 |
| 20260509174702 | 55 | 180 | 1.7 | 4.3 | 0.00 | 0.15 | 0.15 | 93 | 1011.5 |
| 20260509174157 | 55 | 171 | 2.6 | 4.3 | 0.00 | 0.15 | 0.15 | 93 | 1011.6 |
| 20260509173654 | 55 | 187 | 2.6 | 5.2 | 0.00 | 0.15 | 0.15 | 94 | 1011.8 |
| 20260509173150 | 55 | 236 | 0.9 | 1.7 | 0.00 | 0.15 | 0.15 | 93 | 1011.6 |
| 20260509172646 | 55 | 187 | 0.9 | 1.7 | 0.00 | 0.15 | 0.15 | 92 | 1011.8 |
| 20260509172142 | 55 | 229 | 1.7 | 1.7 | 0.07 | 0.15 | 0.15 | 91 | 1011.9 |
| 20260509171638 | 55 | 221 | 1.7 | 1.7 | 0.07 | 0.15 | 0.15 | 92 | 1011.8 |
| 20260509171134 | 55 | 171 | 0.0 | 1.7 | 0.00 | 0.14 | 0.14 | 92 | 1012.1 |
| 20260509170631 | 55 | 139 | 1.7 | 2.6 | 0.00 | 0.14 | 0.14 | 91 | 1011.6 |
| 20260509170127 | 55 | 201 | 1.7 | 2.6 | 0.00 | 0.14 | 0.14 | 92 | 1011.6 |
| 20260509165626 | 55 | 179 | 2.6 | 2.6 | 0.00 | 0.14 | 0.14 | 91 | 1011.8 |
| 20260509165122 | 55 | 198 | 2.6 | 4.3 | 0.00 | 0.14 | 0.14 | 92 | 1011.6 |
| 20260509164617 | 55 | 189 | 1.7 | 2.6 | 0.00 | 0.14 | 0.14 | 92 | 1011.8 |
| 20260509164113 | 55 | 170 | 2.6 | 2.6 | 0.00 | 0.14 | 0.14 | 92 | 1012.0 |
| 20260509163612 | 54 | 208 | 1.7 | 2.6 | 0.00 | 0.14 | 0.14 | 92 | 1012.0 |
| 20260509163107 | 54 | 203 | 2.6 | 2.6 | 0.00 | 0.14 | 0.14 | 92 | 1012.1 |
| 20260509162604 | 55 | 217 | 3.5 | 5.2 | 0.00 | 0.14 | 0.14 | 93 | 1011.9 |
| 20260509162100 | 54 | 169 | 1.7 | 2.6 | 0.00 | 0.14 | 0.14 | 93 | 1012.1 |
| 20260509161557 | 54 | 221 | 0.0 | 0.0 | 0.00 | 0.14 | 0.14 | 96 | 1011.8 |
| 20260509161056 | 54 | 217 | 0.0 | 0.0 | 0.00 | 0.14 | 0.14 | 97 | 1011.8 |
| 20260509160553 | 53 | 265 | 0.0 | 0.0 | 0.00 | 0.14 | 0.14 | 98 | 1011.6 |
| 20260509160048 | 53 | 257 | 0.0 | 0.0 | 0.00 | 0.14 | 0.14 | 98 | 1011.7 |
| 20260509155545 | 53 | 206 | 0.0 | 0.0 | 0.00 | 0.14 | 0.14 | 97 | 1011.5 |
| 20260509155041 | 53 | 59 | 0.0 | 1.7 | 0.05 | 0.14 | 0.14 | 97 | 1011.6 |
| 20260509154537 | 53 | 51 | 2.6 | 4.3 | 0.12 | 0.14 | 0.14 | 97 | 1011.7 |
| 20260509154035 | 53 | 60 | 0.9 | 1.7 | 0.19 | 0.13 | 0.13 | 96 | 1012.1 |
| 20260509153532 | 53 | 59 | 0.0 | 0.0 | 0.24 | 0.12 | 0.12 | 96 | 1012.0 |
| 20260509153029 | 54 | 102 | 0.0 | 0.0 | 0.26 | 0.11 | 0.11 | 95 | 1012.4 |
| 20260509152524 | 54 | 326 | 0.0 | 0.0 | 0.19 | 0.08 | 0.08 | 94 | 1012.6 |
| 20260509152021 | 54 | 324 | 1.7 | 1.7 | 0.17 | 0.07 | 0.07 | 93 | 1012.6 |
| 20260509151518 | 54 | 243 | 0.0 | 0.0 | 0.12 | 0.05 | 0.05 | 91 | 1012.3 |
| 20260509151016 | 54 | 72 | 0.0 | 0.0 | 0.12 | 0.04 | 0.04 | 89 | 1012.3 |
| 20260509150513 | 55 | 146 | 0.0 | 0.0 | 0.05 | 0.03 | 0.03 | 89 | 1012.4 |
| 20260509150012 | 55 | 242 | 0.0 | 0.0 | 0.07 | 0.02 | 0.02 | 88 | 1012.3 |
| 20260509145507 | 55 | 224 | 1.7 | 1.7 | 0.07 | 0.02 | 0.02 | 87 | 1012.4 |
| 20260509145002 | 55 | 204 | 0.9 | 1.7 | 0.00 | 0.01 | 0.01 | 85 | 1012.6 |
| 20260509144459 | 56 | 146 | 0.9 | 1.7 | 0.05 | 0.01 | 0.01 | 84 | 1012.6 |
| 20260509143956 | 56 | 271 | 0.9 | 1.7 | 0.05 | 0.01 | 0.01 | 80 | 1012.4 |
| 20260509143453 | 56 | 204 | 1.7 | 2.6 | 0.00 | 0.00 | 0.00 | 80 | 1012.6 |
| 20260509142950 | 56 | 247 | 1.7 | 2.6 | 0.00 | 0.00 | 0.00 | 79 | 1012.5 |
| 20260509142446 | 56 | 275 | 1.7 | 2.6 | 0.00 | 0.00 | 0.00 | 76 | 1012.3 |
| 20260509141942 | 57 | 272 | 1.7 | 1.7 | 0.00 | 0.00 | 0.00 | 76 | 1012.4 |
| 20260509141438 | 57 | 242 | 0.9 | 1.7 | 0.00 | 0.00 | 0.00 | 74 | 1012.2 |
| 20260509140935 | 57 | 220 | 1.7 | 2.6 | 0.00 | 0.00 | 0.00 | 75 | 1012.0 |
| 20260509140431 | 57 | 298 | 0.9 | 1.7 | 0.00 | 0.00 | 0.00 | 74 | 1011.9 |
| 20260509135930 | 56 | 29 | 2.6 | 5.2 | 0.00 | 0.00 | 0.00 | 75 | 1012.1 |
| 20260509135427 | 57 | 353 | 3.5 | 5.2 | 0.00 | 0.00 | 0.00 | 74 | 1011.7 |
| 20260509134925 | 56 | 255 | 0.0 | 0.0 | 0.00 | 0.00 | 0.00 | 76 | 1011.9 |
| 20260509134422 | 56 | 351 | 2.6 | 4.3 | 0.00 | 0.00 | 0.00 | 75 | 1012.3 |
| 20260509133919 | 56 | 235 | 0.0 | 0.0 | 0.00 | 0.00 | 0.00 | 76 | 1011.9 |
| 20260509133415 | 56 | 244 | 2.6 | 4.3 | 0.00 | 0.00 | 0.00 | 77 | 1012.2 |
| 20260509132914 | 56 | 239 | 0.0 | 0.0 | 0.00 | 0.00 | 0.00 | 78 | 1011.6 |
| 20260509132412 | 56 | 201 | 0.0 | 0.0 | 0.00 | 0.00 | 0.00 | 79 | 1011.6 |
| 20260509131908 | 56 | 213 | 0.0 | 0.0 | 0.00 | 0.00 | 0.00 | 80 | 1011.8 |
| 20260509131405 | 55 | 197 | 2.6 | 2.6 | 0.00 | 0.00 | 0.00 | 80 | 1011.8 |
| 20260509130902 | 55 | 187 | 0.0 | 0.0 | 0.00 | 0.00 | 0.00 | 79 | 1011.6 |
| 20260509130357 | 55 | 151 | 0.0 | 0.0 | 0.00 | 0.00 | 0.00 | 80 | 1011.8 |
| 20260509125855 | 55 | 173 | 0.0 | 0.0 | 0.00 | 0.00 | 0.00 | 81 | 1011.8 |
| 20260509125351 | 55 | 124 | 0.9 | 1.7 | 0.00 | 0.00 | 0.00 | 82 | 1011.7 |
| 20260509124847 | 55 | 184 | 0.9 | 1.7 | 0.00 | 0.00 | 0.00 | 82 | 1011.3 |
| 20260509124344 | 55 | 219 | 0.9 | 1.7 | 0.00 | 0.00 | 0.00 | 82 | 1011.5 |
| 20260509123842 | 55 | 190 | 0.9 | 1.7 | 0.00 | 0.00 | 0.00 | 81 | 1011.9 |
| 20260509123339 | 55 | 202 | 2.6 | 4.3 | 0.00 | 0.00 | 0.00 | 83 | 1011.9 |
| 20260509122834 | 55 | 183 | 2.6 | 4.3 | 0.00 | 0.00 | 0.00 | 82 | 1011.8 |
| 20260509122332 | 54 | 235 | 0.0 | 1.7 | 0.00 | 0.00 | 0.00 | 83 | 1011.7 |
| 20260509121829 | 54 | 183 | 0.0 | 0.0 | 0.00 | 0.00 | 0.00 | 83 | 1011.5 |
| 20260509121326 | 54 | 177 | 0.9 | 1.7 | 0.00 | 0.00 | 0.00 | 84 | 1011.8 |
| 20260509120824 | 54 | 217 | 3.5 | 4.3 | 0.00 | 0.00 | 0.00 | 84 | 1011.8 |
| 20260509120322 | 54 | 145 | 0.9 | 1.7 | 0.00 | 0.00 | 0.00 | 85 | 1011.4 |
| 20260509115820 | 54 | 259 | 1.7 | 2.6 | 0.00 | 0.00 | 0.00 | 84 | 1011.6 |
| 20260509115316 | 53 | 221 | 0.0 | 0.0 | 0.00 | 0.00 | 0.00 | 85 | 1011.2 |
| 20260509114814 | 53 | 143 | 0.9 | 1.7 | 0.00 | 0.00 | 0.00 | 85 | 1011.1 |
| 20260509114313 | 53 | 237 | 0.0 | 0.0 | 0.00 | 0.00 | 0.00 | 86 | 1011.3 |
| 20260509113812 | 53 | 180 | 0.0 | 0.0 | 0.00 | 0.00 | 0.00 | 87 | 1011.2 |
| 20260509113308 | 53 | 182 | 0.9 | 1.7 | 0.00 | 0.00 | 0.00 | 88 | 1011.3 |
| 20260509112805 | 53 | 159 | 0.9 | 1.7 | 0.00 | 0.00 | 0.00 | 86 | 1011.0 |
| 20260509112306 | 53 | 275 | 0.0 | 0.0 | 0.00 | 0.00 | 0.00 | 86 | 1011.3 |
| 20260509111759 | 53 | 209 | 0.0 | 0.0 | 0.00 | 0.00 | 0.00 | 85 | 1011.3 |
| 20260509111256 | 53 | 234 | 0.0 | 0.0 | 0.00 | 0.00 | 0.00 | 86 | 1011.1 |
| 20260509110753 | 53 | 144 | 0.0 | 0.0 | 0.00 | 0.00 | 0.00 | 86 | 1011.0 |
| 20260509110249 | 52 | 202 | 0.0 | 0.0 | 0.00 | 0.00 | 0.00 | 87 | 1010.8 |
| 20260509105748 | 52 | 199 | 0.0 | 0.0 | 0.00 | 0.00 | 0.00 | 87 | 1011.0 |
| 20260509105245 | 52 | 156 | 0.9 | 1.7 | 0.00 | 0.00 | 0.00 | 87 | 1011.0 |
| 20260509104742 | 52 | 208 | 0.0 | 0.0 | 0.00 | 0.00 | 0.00 | 87 | 1010.9 |
| 20260509104239 | 53 | 186 | 1.7 | 1.7 | 0.00 | 0.00 | 0.00 | 87 | 1011.1 |
| 20260509103737 | 53 | 141 | 1.7 | 2.6 | 0.00 | 0.00 | 0.00 | 86 | 1011.1 |
| 20260509103234 | 52 | 200 | 0.0 | 0.0 | 0.00 | 0.00 | 0.00 | 87 | 1010.9 |
| 20260509102732 | 52 | 139 | 3.5 | 4.3 | 0.00 | 0.00 | 0.00 | 87 | 1010.9 |
| 20260509102229 | 52 | 186 | 2.6 | 4.3 | 0.00 | 0.00 | 0.00 | 86 | 1011.0 |
| 20260509101725 | 52 | 221 | 0.0 | 1.7 | 0.00 | 0.00 | 0.00 | 86 | 1010.8 |
| 20260509101221 | 52 | 202 | 0.0 | 0.0 | 0.00 | 0.00 | 0.00 | 87 | 1010.8 |
| 20260509100719 | 52 | 210 | 0.0 | 1.7 | 0.00 | 0.00 | 0.00 | 88 | 1010.7 |
| 20260509100216 | 52 | 227 | 0.0 | 0.0 | 0.00 | 0.00 | 0.00 | 88 | 1010.9 |
| 20260509095713 | 52 | 207 | 0.9 | 1.7 | 0.00 | 0.00 | 0.00 | 87 | 1010.9 |
| 20260509095210 | 52 | 237 | 0.0 | 1.7 | 0.00 | 0.00 | 0.00 | 86 | 1010.8 |
| 20260509094707 | 52 | 216 | 0.0 | 0.0 | 0.00 | 0.00 | 0.00 | 86 | 1010.6 |
| 20260509094204 | 52 | 154 | 0.0 | 0.0 | 0.00 | 0.00 | 0.00 | 87 | 1010.8 |
| 20260509093702 | 52 | 193 | 0.9 | 2.6 | 0.00 | 0.00 | 0.00 | 87 | 1010.8 |
| 20260509093159 | 52 | 149 | 0.0 | 0.0 | 0.00 | 0.00 | 0.00 | 87 | 1011.0 |
| 20260509092657 | 52 | 140 | 0.0 | 1.7 | 0.00 | 0.00 | 0.00 | 87 | 1010.9 |
| 20260509092155 | 52 | 178 | 0.9 | 1.7 | 0.00 | 0.00 | 0.00 | 87 | 1011.0 |
| 20260509091653 | 52 | 185 | 0.9 | 1.7 | 0.00 | 0.00 | 0.00 | 87 | 1011.2 |
| 20260509091148 | 52 | 178 | 1.7 | 2.6 | 0.00 | 0.00 | 0.00 | 87 | 1011.0 |
| 20260509090646 | 52 | 162 | 1.7 | 2.6 | 0.00 | 0.00 | 0.00 | 87 | 1011.1 |
| 20260509090143 | 52 | 152 | 1.7 | 2.6 | 0.00 | 0.00 | 0.00 | 87 | 1011.3 |
| 20260509085641 | 52 | 174 | 2.6 | 4.3 | 0.00 | 0.00 | 0.00 | 87 | 1011.1 |
| 20260509085137 | 52 | 240 | 2.6 | 4.3 | 0.00 | 0.00 | 0.00 | 86 | 1011.0 |
| 20260509084634 | 52 | 154 | 1.7 | 2.6 | 0.00 | 0.00 | 0.00 | 86 | 1011.2 |
| 20260509084131 | 52 | 219 | 1.7 | 2.6 | 0.00 | 0.00 | 0.00 | 86 | 1011.1 |
| 20260509083629 | 52 | 202 | 0.9 | 1.7 | 0.00 | 0.00 | 0.00 | 85 | 1011.2 |
| 20260509083125 | 52 | 162 | 0.9 | 1.7 | 0.00 | 0.00 | 0.00 | 85 | 1011.0 |
| 20260509082623 | 52 | 138 | 0.9 | 1.7 | 0.00 | 0.00 | 0.00 | 84 | 1011.1 |
| 20260509082119 | 52 | 172 | 0.0 | 1.7 | 0.00 | 0.00 | 0.00 | 84 | 1011.3 |
| 20260509081616 | 52 | 176 | 0.9 | 1.7 | 0.00 | 0.00 | 0.00 | 85 | 1011.3 |
| 20260509081114 | 52 | 161 | 2.6 | 2.6 | 0.00 | 0.00 | 0.00 | 84 | 1011.6 |
| 20260509080612 | 53 | 143 | 2.6 | 2.6 | 0.00 | 0.00 | 0.00 | 83 | 1011.4 |
| 20260509080109 | 53 | 157 | 1.7 | 2.6 | 0.00 | 0.00 | 0.00 | 83 | 1011.5 |
| 20260509075606 | 53 | 204 | 0.0 | 0.0 | 0.00 | 0.00 | 0.00 | 83 | 1011.4 |
| 20260509075104 | 53 | 220 | 0.9 | 1.7 | 0.00 | 0.00 | 0.00 | 83 | 1011.4 |
| 20260509074601 | 53 | 162 | 0.9 | 1.7 | 0.00 | 0.00 | 0.00 | 82 | 1011.3 |
| 20260509074057 | 53 | 202 | 0.0 | 0.0 | 0.00 | 0.00 | 0.00 | 83 | 1011.5 |
| 20260509073554 | 53 | 261 | 0.0 | 0.0 | 0.00 | 0.00 | 0.00 | 82 | 1011.5 |
| 20260509073051 | 52 | 196 | 0.0 | 0.0 | 0.00 | 0.00 | 0.00 | 82 | 1011.4 |
| 20260509072547 | 52 | 244 | 0.0 | 0.0 | 0.00 | 0.00 | 0.00 | 82 | 1011.7 |
| 20260509072044 | 52 | 221 | 0.0 | 0.0 | 0.00 | 0.00 | 0.00 | 82 | 1011.4 |